[Iaude] MPEC R158: 2016 RY33 [a=2.29,e=0.50,i=12.3,H=20.1]

mpec at mpc.eps.harvard.edu mpec at mpc.eps.harvard.edu
Tue Sep 13 23:01:17 EDT 2016


M.P.E.C. 2016-R158                               Issued 2016 Sept. 14, 02:44 UT
 
     The Minor Planet Electronic Circulars contain information on unusual
         minor planets and routine data on comets.  They are published
    on behalf of Division F of the International Astronomical Union by the
          Minor Planet Center, Smithsonian Astrophysical Observatory,
                          Cambridge, MA 02138, U.S.A.

             Prepared using the Tamkin Foundation Computer Network

                              MPC at CFA.HARVARD.EDU
            URL http://www.minorplanetcenter.net/    ISSN 1523-6714


                                   2016 RY33
 
Observations:
     K16R33Y* C2016 09 10.48744 04 20 54.21 +06 03 50.9          20.1 VqER158G96
     K16R33Y  C2016 09 10.49524 04 20 55.44 +06 04 11.9          20.3 VqER158G96
     K16R33Y  C2016 09 10.49906 04 20 56.02 +06 04 22.6          20.1 VqER158G96
     K16R33Y  C2016 09 10.50288 04 20 56.65 +06 04 32.8          20.1 VqER158G96
     K16R33Y  C2016 09 11.01595 04 22 22.16 +06 27 35.3                qER158246
     K16R33Y IC2016 09 11.01720 04 22 22.27 +06 27 39.7                qER158246
     K16R33Y IC2016 09 11.01982 04 22 22.64 +06 27 43.1                qER158246
     K16R33Y KC2016 09 11.40669 04 23 25.81 +06 45 18.3          20.0 RqER158H36
     K16R33Y KC2016 09 11.41282 04 23 26.76 +06 45 34.7          20.2 RqER158H36
     K16R33Y KC2016 09 11.41895 04 23 27.70 +06 45 51.1          20.0 RqER158H36
     K16R33Y  C2016 09 11.42239 04 23 28.63 +06 46 02.9          20.3 VqER158G96
     K16R33Y KC2016 09 11.42508 04 23 28.67 +06 46 07.7          20.3 RqER158H36
     K16R33Y  C2016 09 11.43385 04 23 30.38 +06 46 33.9          20.2 VqER158G96
     K16R33Y  C2016 09 11.43812 04 23 31.07 +06 46 45.7          20.3 VqER158G96
     K16R33Y  C2016 09 11.44241 04 23 31.74 +06 46 57.1          20.2 VqER158G96
     K16R33Y KC2016 09 12.36929004 26 02.12 +07 28 44.0          20.5 VuER158H21
     K16R33Y KC2016 09 12.37483204 26 02.97 +07 28 58.8          20.5 VuER158H21
     K16R33Y KC2016 09 12.37936704 26 03.68 +07 29 11.4          20.4 VuER158H21
     K16R33Y  C2016 09 12.39534 04 26 06.62 +07 29 56.7          20.3 VqER158G96
     K16R33Y  C2016 09 12.39773 04 26 06.97 +07 30 03.6          20.1 VqER158G96
     K16R33Y  C2016 09 12.39986 04 26 07.31 +07 30 09.0          20.0 VqER158G96
     K16R33Y  C2016 09 12.40399 04 26 07.95 +07 30 20.0          20.0 VqER158G96
     K16R33Y FC2016 09 13.06121 04 27 52.95 +07 59 53.1                qER158246
     K16R33Y FC2016 09 13.06248 04 27 53.28 +07 59 56.1                qER158246
 
Observer details:
246 Klet Observatory-KLENOT.  Observers M. Tichy, J. Ticha.  Measurer M. Tichy.
    1.06-m KLENOT Telescope + CCD.
G96 Mt. Lemmon Survey.  Observers A. R. Gibbs, R. A. Kowalski.  Measurers
    E. J. Christensen, D. C. Fuls, A. R. Gibbs, A. D. Grauer, J. A. Johnson,
    R. A. Kowalski, S. M. Larson, G. J. Leonard, R. G. Matheny, R. L. Seaman,
    F. C. Shelly.  1.5-m reflector + 10K CCD.
H21 Astronomical Research Observatory, Westfield.  Observer R. Holmes.
    Measurers S. Foglia, L. Buzzi, T. Linder, R. Holmes.  0.61-m f/4.5
    astrograph + CCD.
H36 Sandlot Observatory, Scranton.  Observer G. Hug.  0.56-m reflector + CCD.
 
Orbital elements:
2016 RY33                                                Earth MOID = 0.1572 AU
Epoch 2016 July 31.0 TT = JDT 2457600.5                 MPC
M 349.09761              (2000.0)            P               Q
n   0.28487951     Peri.  334.35684     +0.99523618     -0.01330989
a   2.2875043      Node    26.94371     +0.06565005     +0.82386716
e   0.5017925      Incl.   12.30689     -0.07207645     +0.56662664
P   3.46           H   20.1           G   0.15           U   9
Residuals in seconds of arc
160910 G96  0.4-  0.0     160911 H36  0.1-  0.1-    160912 H21  0.1-  0.2-
160910 G96  0.3-  0.1-    160911 H36  0.3-  0.3-    160912 H21  0.1+  0.1+
160910 G96  0.6-  0.2+    160911 G96  0.1+  0.1+    160912 G96  0.3-  0.1-
160910 G96  0.1-  0.1+    160911 H36  0.1-  0.3-    160912 G96  0.6-  0.3+
160911 246  0.7+  0.5-    160911 G96  0.4-  0.1-    160912 G96  0.5-  0.0
160911 246  0.7-  0.5+    160911 G96  0.0   0.1+    160912 G96  0.4-  0.3-
160911 246 (1.4-  3.2-)   160911 G96  0.0   0.1-    160913 246  1.1-  0.3+
160911 H36  0.0   0.2+    160912 H21  0.0   0.0     160913 246  0.9+  0.1-

Ephemeris:
2016 RY33                a,e,i = 2.29, 0.50, 12                  q = 1.1397
Date    TT    R. A. (2000) Decl.     Delta      r     Elong.  Phase     V
2016 08 15    02 54 59.7 -12 50 07   0.3948  1.1699   103.5    57.3    20.5
...
2016 08 30    03 46 36.5 -02 29 44   0.3650  1.1436   102.1    59.7    20.3
...
2016 09 07    04 11 01.4 +03 26 42   0.3564  1.1397   102.6    59.7    20.3
...
2016 09 13    04 27 42.5 +07 57 22   0.3528  1.1415   103.5    59.0    20.2
2016 09 14    04 30 20.7 +08 42 25   0.3524  1.1422   103.8    58.8    20.2
2016 09 15    04 32 56.4 +09 27 25   0.3521  1.1431   104.0    58.6    20.2
...
2016 09 21    04 47 35.0 +13 55 11   0.3513  1.1503   105.8    57.1    20.2
...
2016 09 29    05 04 19.5 +19 42 44   0.3530  1.1661   109.1    54.3    20.2
...
2016 10 14    05 25 06.9 +29 48 54   0.3639  1.2128   118.3    46.4    20.1

A. U. Tomatic                (C) Copyright 2016 MPC           M.P.E.C. 2016-R158




More information about the Iaude mailing list